Time,TemperatureF,DewpointF,PressureIn,WindDirection,WindDirectionDegrees,WindSpeedMPH,WindSpeedGustMPH,Humidity,HourlyPrecipIn,Conditions,Clouds,dailyrainin,SoftwareType,DateUTC
2013-09-23 00:04:00,59.4,56.8,29.99,SW,231,0.0,0.0,91,0.00,,,0.00,WeatherCatV1.15B25,2013-09-23 07:04:00,
2013-09-23 00:09:00,59.3,56.7,29.99,SW,231,0.0,0.0,91,0.00,,,0.00,WeatherCatV1.15B25,2013-09-23 07:09:00,
2013-09-23 00:14:00,59.3,56.7,30.00,SW,231,0.0,0.0,91,0.00,,,0.00,WeatherCatV1.15B25,2013-09-23 07:14:00,
2013-09-23 00:19:00,59.2,56.6,30.00,SW,231,0.0,0.0,91,0.00,,,0.00,WeatherCatV1.15B25,2013-09-23 07:19:00,
2013-09-23 00:24:00,59.2,56.6,30.00,SW,231,0.0,0.0,91,0.00,,,0.00,WeatherCatV1.15B25,2013-09-23 07:24:00,
2013-09-23 00:29:00,59.0,56.4,30.00,SW,231,0.0,0.0,91,0.00,,,0.00,WeatherCatV1.15B25,2013-09-23 07:29:00,
2013-09-23 00:34:00,58.9,56.6,29.99,SW,231,0.0,0.0,92,0.00,,,0.00,WeatherCatV1.15B25,2013-09-23 07:34:00,
2013-09-23 00:39:00,58.8,56.5,30.00,SW,231,0.0,0.0,92,0.00,,,0.00,WeatherCatV1.15B25,2013-09-23 07:39:00,
2013-09-23 00:44:00,58.8,56.5,30.00,SW,231,0.0,0.0,92,0.00,,,0.00,WeatherCatV1.15B25,2013-09-23 07:44:00,
2013-09-23 00:49:00,58.7,56.4,30.00,SW,231,0.0,0.0,92,0.00,,,0.00,WeatherCatV1.15B25,2013-09-23 07:49:00,
2013-09-23 00:54:00,58.6,56.3,30.00,SW,231,0.0,0.0,92,0.00,,,0.00,WeatherCatV1.15B25,2013-09-23 07:54:00,
2013-09-23 00:59:00,58.6,56.3,30.00,SW,231,0.0,0.0,92,0.00,,,0.00,WeatherCatV1.15B25,2013-09-23 07:59:00,
2013-09-23 01:04:00,58.6,56.3,30.00,SW,231,0.0,0.0,92,0.00,,,0.00,WeatherCatV1.15B25,2013-09-23 08:04:00,
2013-09-23 01:09:00,58.5,56.2,29.99,SW,230,0.0,0.0,92,0.00,,,0.00,WeatherCatV1.15B25,2013-09-23 08:09:00,
2013-09-23 01:14:00,58.4,56.4,30.00,SW,230,0.0,0.0,93,0.00,,,0.00,WeatherCatV1.15B25,2013-09-23 08:14:00,
2013-09-23 01:19:00,58.4,56.4,30.00,SW,230,0.0,0.0,93,0.00,,,0.00,WeatherCatV1.15B25,2013-09-23 08:19:00,
2013-09-23 01:24:00,58.3,56.0,30.00,SW,230,0.0,0.0,92,0.00,,,0.00,WeatherCatV1.15B25,2013-09-23 08:24:00,
2013-09-23 01:29:00,58.3,56.0,30.00,SW,230,0.0,0.0,92,0.00,,,0.00,WeatherCatV1.15B25,2013-09-23 08:29:00,
2013-09-23 01:34:00,58.2,55.9,30.01,SW,230,0.0,0.0,92,0.00,,,0.00,WeatherCatV1.15B25,2013-09-23 08:34:00,
2013-09-23 01:39:00,58.1,55.8,30.01,SW,230,0.0,0.0,92,0.00,,,0.00,WeatherCatV1.15B25,2013-09-23 08:39:00,
2013-09-23 01:44:00,58.1,55.8,30.01,SW,230,0.0,0.0,92,0.00,,,0.00,WeatherCatV1.15B25,2013-09-23 08:44:00,
2013-09-23 01:49:00,58.0,55.7,30.01,SW,230,0.0,0.0,92,0.00,,,0.00,WeatherCatV1.15B25,2013-09-23 08:49:00,
2013-09-23 01:54:00,57.9,55.9,30.01,SW,230,0.0,0.0,93,0.00,,,0.00,WeatherCatV1.15B25,2013-09-23 08:54:00,
2013-09-23 01:59:00,57.8,55.8,30.01,SW,230,0.0,0.0,93,0.00,,,0.00,WeatherCatV1.15B25,2013-09-23 08:59:00,
2013-09-23 02:04:00,57.7,55.7,30.01,SW,230,0.0,0.0,93,0.00,,,0.00,WeatherCatV1.15B25,2013-09-23 09:04:00,
2013-09-23 02:09:00,57.6,55.6,30.01,SW,230,0.0,0.0,93,0.00,,,0.00,WeatherCatV1.15B25,2013-09-23 09:09:00,
2013-09-23 02:14:00,57.6,55.6,30.01,SW,230,0.0,0.0,93,0.00,,,0.00,WeatherCatV1.15B25,2013-09-23 09:14:00,
2013-09-23 02:19:00,57.5,55.5,30.02,SW,230,0.0,0.0,93,0.00,,,0.00,WeatherCatV1.15B25,2013-09-23 09:19:00,
2013-09-23 02:24:00,57.4,55.1,30.02,SW,230,0.0,0.0,92,0.00,,,0.00,WeatherCatV1.15B25,2013-09-23 09:24:00,
2013-09-23 02:29:00,57.3,55.0,30.02,SW,230,0.0,0.0,92,0.00,,,0.00,WeatherCatV1.15B25,2013-09-23 09:29:00,
2013-09-23 02:34:00,57.2,54.9,30.02,SW,230,0.0,0.0,92,0.00,,,0.00,WeatherCatV1.15B25,2013-09-23 09:34:00,
2013-09-23 02:39:00,57.1,55.1,30.02,SW,230,0.0,0.0,93,0.00,,,0.00,WeatherCatV1.15B25,2013-09-23 09:39:00,
2013-09-23 02:44:00,57.0,55.0,30.01,SW,229,0.0,0.0,93,0.00,,,0.00,WeatherCatV1.15B25,2013-09-23 09:44:00,
2013-09-23 02:49:00,56.9,54.9,30.01,SSW,193,0.0,0.0,93,0.00,,,0.00,WeatherCatV1.15B25,2013-09-23 09:49:00,
2013-09-23 02:54:00,56.8,54.8,30.01,SSW,193,0.0,0.0,93,0.00,,,0.00,WeatherCatV1.15B25,2013-09-23 09:54:00,
2013-09-23 02:59:00,56.8,54.8,30.01,SSW,193,0.0,0.0,93,0.00,,,0.00,WeatherCatV1.15B25,2013-09-23 09:59:00,
2013-09-23 03:04:00,56.7,54.7,30.01,SSW,193,0.0,0.0,93,0.00,,,0.00,WeatherCatV1.15B25,2013-09-23 10:04:00,
2013-09-23 03:10:00,56.7,54.7,30.01,SSW,193,0.0,0.0,93,0.00,,,0.00,WeatherCatV1.15B25,2013-09-23 10:10:00,
2013-09-23 03:15:00,56.7,54.7,30.01,SSW,193,0.0,0.0,93,0.00,,,0.00,WeatherCatV1.15B25,2013-09-23 10:15:00,
2013-09-23 03:20:00,56.6,54.6,30.02,SSW,193,0.0,0.0,93,0.00,,,0.00,WeatherCatV1.15B25,2013-09-23 10:20:00,
2013-09-23 03:25:00,56.6,54.9,30.01,SSW,204,0.0,0.0,94,0.00,,,0.00,WeatherCatV1.15B25,2013-09-23 10:25:00,
2013-09-23 03:30:00,56.6,54.9,30.02,SSW,201,0.0,0.0,94,0.00,,,0.00,WeatherCatV1.15B25,2013-09-23 10:30:00,
2013-09-23 03:35:00,56.6,54.9,30.02,SSW,201,0.0,0.0,94,0.00,,,0.00,WeatherCatV1.15B25,2013-09-23 10:35:00,
2013-09-23 03:40:00,56.6,54.9,30.02,SSW,201,0.0,0.0,94,0.00,,,0.00,WeatherCatV1.15B25,2013-09-23 10:40:00,
2013-09-23 03:45:00,56.6,54.9,30.02,SSW,201,0.0,0.0,94,0.00,,,0.00,WeatherCatV1.15B25,2013-09-23 10:45:00,
2013-09-23 03:50:00,56.6,54.9,30.02,SSW,201,0.0,0.0,94,0.00,,,0.00,WeatherCatV1.15B25,2013-09-23 10:50:00,
2013-09-23 03:55:00,56.6,54.9,30.02,SSW,201,0.0,0.0,94,0.00,,,0.00,WeatherCatV1.15B25,2013-09-23 10:55:00,
2013-09-23 04:00:00,56.6,54.9,30.01,SSW,201,0.0,0.0,94,0.00,,,0.00,WeatherCatV1.15B25,2013-09-23 11:00:00,
2013-09-23 04:05:00,56.6,54.9,30.01,SSW,201,0.0,0.0,94,0.00,,,0.00,WeatherCatV1.15B25,2013-09-23 11:05:00,
2013-09-23 04:10:00,56.6,54.9,30.02,SSW,201,0.0,0.0,94,0.00,,,0.00,WeatherCatV1.15B25,2013-09-23 11:10:00,
2013-09-23 04:15:00,56.6,54.9,30.02,SSW,201,0.0,0.0,94,0.00,,,0.00,WeatherCatV1.15B25,2013-09-23 11:15:00,
2013-09-23 04:20:00,56.6,54.9,30.02,SSW,201,0.0,0.0,94,0.00,,,0.00,WeatherCatV1.15B25,2013-09-23 11:20:00,
2013-09-23 04:25:00,56.6,54.9,30.02,SSW,201,0.0,0.0,94,0.00,,,0.00,WeatherCatV1.15B25,2013-09-23 11:25:00,
2013-09-23 04:30:00,56.6,54.9,30.02,SSW,201,0.0,0.0,94,0.00,,,0.00,WeatherCatV1.15B25,2013-09-23 11:30:00,
2013-09-23 04:35:00,56.6,54.9,30.02,SSW,201,0.0,0.0,94,0.00,,,0.00,WeatherCatV1.15B25,2013-09-23 11:35:00,
2013-09-23 04:40:00,56.6,54.9,30.02,SSW,201,0.0,0.0,94,0.00,,,0.00,WeatherCatV1.15B25,2013-09-23 11:40:00,
2013-09-23 04:45:00,56.6,54.9,30.02,SSW,201,0.0,0.0,94,0.00,,,0.00,WeatherCatV1.15B25,2013-09-23 11:45:00,
2013-09-23 04:50:00,56.7,55.0,30.02,SSW,201,0.0,0.0,94,0.00,,,0.00,WeatherCatV1.15B25,2013-09-23 11:50:00,
2013-09-23 04:55:00,56.6,54.9,30.02,SSW,201,0.0,0.0,94,0.00,,,0.00,WeatherCatV1.15B25,2013-09-23 11:55:00,
2013-09-23 05:00:00,56.6,54.9,30.02,SSW,201,0.0,0.0,94,0.00,,,0.00,WeatherCatV1.15B25,2013-09-23 12:00:00,
2013-09-23 05:05:00,56.6,54.9,30.03,SSW,202,0.0,0.0,94,0.00,,,0.00,WeatherCatV1.15B25,2013-09-23 12:05:00,
2013-09-23 05:10:00,56.6,54.9,30.02,West,271,0.0,0.0,94,0.00,,,0.00,WeatherCatV1.15B25,2013-09-23 12:10:00,
2013-09-23 05:15:00,56.6,54.9,30.02,West,271,0.0,0.0,94,0.00,,,0.00,WeatherCatV1.15B25,2013-09-23 12:15:00,
2013-09-23 05:20:00,56.6,54.9,30.02,West,271,0.0,0.0,94,0.00,,,0.00,WeatherCatV1.15B25,2013-09-23 12:20:00,
2013-09-23 05:25:00,56.6,54.9,30.02,West,271,0.0,0.0,94,0.00,,,0.00,WeatherCatV1.15B25,2013-09-23 12:25:00,
2013-09-23 05:30:00,56.6,54.9,30.02,West,271,0.0,0.0,94,0.00,,,0.00,WeatherCatV1.15B25,2013-09-23 12:30:00,
2013-09-23 05:35:00,56.6,54.9,30.03,West,271,0.0,0.0,94,0.00,,,0.00,WeatherCatV1.15B25,2013-09-23 12:35:00,
2013-09-23 05:40:00,56.6,54.9,30.03,West,271,0.0,0.0,94,0.00,,,0.00,WeatherCatV1.15B25,2013-09-23 12:40:00,
2013-09-23 05:45:00,56.6,54.9,30.03,West,271,0.0,0.0,94,0.00,,,0.00,WeatherCatV1.15B25,2013-09-23 12:45:00,
2013-09-23 05:50:00,56.6,54.9,30.03,West,271,0.0,0.0,94,0.00,,,0.00,WeatherCatV1.15B25,2013-09-23 12:50:00,
2013-09-23 05:55:00,56.5,54.8,30.03,West,271,0.0,0.0,94,0.00,,,0.00,WeatherCatV1.15B25,2013-09-23 12:55:00,
2013-09-23 06:00:00,56.5,54.8,30.04,West,271,0.0,0.0,94,0.00,,,0.00,WeatherCatV1.15B25,2013-09-23 13:00:00,
2013-09-23 06:05:00,56.5,54.8,30.03,West,271,0.0,0.0,94,0.00,,,0.00,WeatherCatV1.15B25,2013-09-23 13:05:00,
2013-09-23 06:10:00,56.5,54.8,30.03,West,271,0.0,0.0,94,0.00,,,0.00,WeatherCatV1.15B25,2013-09-23 13:10:00,
2013-09-23 06:15:00,56.5,54.8,30.03,West,271,0.0,0.0,94,0.00,,,0.00,WeatherCatV1.15B25,2013-09-23 13:15:00,
2013-09-23 06:20:00,56.5,54.8,30.03,West,271,0.0,0.0,94,0.00,,,0.00,WeatherCatV1.15B25,2013-09-23 13:20:00,
2013-09-23 06:25:00,56.5,54.8,30.03,West,271,0.0,0.0,94,0.00,,,0.00,WeatherCatV1.15B25,2013-09-23 13:25:00,
2013-09-23 06:30:00,56.5,54.8,30.03,West,271,0.0,0.0,94,0.00,,,0.00,WeatherCatV1.15B25,2013-09-23 13:30:00,
2013-09-23 06:35:00,56.5,54.8,30.03,West,271,0.0,0.0,94,0.00,,,0.00,WeatherCatV1.15B25,2013-09-23 13:35:00,
2013-09-23 06:40:00,56.5,54.8,30.04,West,271,0.0,0.0,94,0.00,,,0.00,WeatherCatV1.15B25,2013-09-23 13:40:00,
2013-09-23 06:45:00,56.5,54.8,30.04,West,271,0.0,0.0,94,0.00,,,0.00,WeatherCatV1.15B25,2013-09-23 13:45:00,
2013-09-23 06:50:00,56.5,54.8,30.04,West,271,0.0,0.0,94,0.00,,,0.00,WeatherCatV1.15B25,2013-09-23 13:50:00,
2013-09-23 06:55:00,56.5,54.8,30.04,West,271,0.0,0.0,94,0.00,,,0.00,WeatherCatV1.15B25,2013-09-23 13:55:00,
2013-09-23 07:00:00,56.6,55.2,30.04,West,271,0.0,0.0,95,0.00,,,0.00,WeatherCatV1.15B25,2013-09-23 14:00:00,
2013-09-23 07:05:00,56.6,55.2,30.05,West,271,0.0,0.0,95,0.00,,,0.00,WeatherCatV1.15B25,2013-09-23 14:05:00,
2013-09-23 07:10:00,56.6,55.2,30.05,West,271,0.0,0.0,95,0.00,,,0.00,WeatherCatV1.15B25,2013-09-23 14:10:00,
2013-09-23 07:15:00,56.6,55.2,30.05,West,271,0.0,0.0,95,0.00,,,0.00,WeatherCatV1.15B25,2013-09-23 14:15:00,
2013-09-23 07:20:00,56.7,55.3,30.05,West,271,0.0,0.0,95,0.00,,,0.00,WeatherCatV1.15B25,2013-09-23 14:20:00,
2013-09-23 07:25:00,56.7,55.3,30.05,West,271,0.0,0.0,95,0.00,,,0.00,WeatherCatV1.15B25,2013-09-23 14:25:00,
2013-09-23 07:30:00,56.7,55.3,30.04,West,271,0.0,0.0,95,0.00,,,0.00,WeatherCatV1.15B25,2013-09-23 14:30:00,
2013-09-23 07:35:00,56.7,55.3,30.04,West,271,0.0,0.0,95,0.00,,,0.00,WeatherCatV1.15B25,2013-09-23 14:35:00,
2013-09-23 07:40:00,56.7,55.3,30.04,West,271,0.0,0.0,95,0.00,,,0.00,WeatherCatV1.15B25,2013-09-23 14:40:00,
2013-09-23 07:45:00,56.7,55.3,30.05,West,271,0.0,0.0,95,0.00,,,0.00,WeatherCatV1.15B25,2013-09-23 14:45:00,
2013-09-23 07:50:00,56.8,55.4,30.05,West,271,0.0,0.0,95,0.00,,,0.00,WeatherCatV1.15B25,2013-09-23 14:50:00,
2013-09-23 07:55:00,56.8,55.4,30.05,West,271,0.0,0.0,95,0.00,,,0.00,WeatherCatV1.15B25,2013-09-23 14:55:00,
2013-09-23 08:00:00,56.9,55.5,30.05,West,271,0.0,0.0,95,0.00,,,0.00,WeatherCatV1.15B25,2013-09-23 15:00:00,
2013-09-23 08:05:00,56.9,55.5,30.05,West,271,0.0,0.0,95,0.00,,,0.00,WeatherCatV1.15B25,2013-09-23 15:05:00,
2013-09-23 08:10:00,57.0,55.6,30.05,West,271,0.0,0.0,95,0.00,,,0.00,WeatherCatV1.15B25,2013-09-23 15:10:00,
2013-09-23 08:15:00,57.0,55.6,30.05,West,273,0.0,0.0,95,0.00,,,0.00,WeatherCatV1.15B25,2013-09-23 15:15:00,
2013-09-23 08:20:00,57.0,55.6,30.05,West,273,0.0,0.0,95,0.00,,,0.00,WeatherCatV1.15B25,2013-09-23 15:20:00,
2013-09-23 08:25:00,57.1,55.7,30.05,NW,311,0.0,0.0,95,0.00,,,0.00,WeatherCatV1.15B25,2013-09-23 15:25:00,
2013-09-23 08:30:00,57.1,55.7,30.05,NNW,338,0.0,0.0,95,0.00,,,0.00,WeatherCatV1.15B25,2013-09-23 15:30:00,
2013-09-23 08:35:00,57.2,55.8,30.05,NNW,338,0.0,0.0,95,0.00,,,0.00,WeatherCatV1.15B25,2013-09-23 15:35:00,
2013-09-23 08:40:00,57.2,55.8,30.05,NNW,338,0.0,0.0,95,0.00,,,0.00,WeatherCatV1.15B25,2013-09-23 15:40:00,
2013-09-23 08:45:00,57.2,55.5,30.06,NNW,338,0.0,0.0,94,0.00,,,0.00,WeatherCatV1.15B25,2013-09-23 15:45:00,
2013-09-23 08:50:00,57.3,55.6,30.06,NNW,338,0.0,0.0,94,0.00,,,0.00,WeatherCatV1.15B25,2013-09-23 15:50:00,
2013-09-23 08:55:00,57.3,55.6,30.06,NNW,338,0.0,0.0,94,0.00,,,0.00,WeatherCatV1.15B25,2013-09-23 15:55:00,
2013-09-23 09:00:00,57.4,55.7,30.06,NW,309,0.0,0.0,94,0.00,,,0.00,WeatherCatV1.15B25,2013-09-23 16:00:00,
2013-09-23 09:05:00,57.5,55.8,30.06,West,266,2.0,4.0,94,0.00,,,0.00,WeatherCatV1.15B25,2013-09-23 16:05:00,
2013-09-23 09:10:00,57.5,55.8,30.06,WNW,290,2.0,3.0,94,0.00,,,0.00,WeatherCatV1.15B25,2013-09-23 16:10:00,
2013-09-23 09:15:00,57.6,55.6,30.06,WSW,252,1.0,1.0,93,0.00,,,0.01,WeatherCatV1.15B25,2013-09-23 16:15:00,
2013-09-23 09:20:00,57.7,55.7,30.06,WSW,257,1.0,3.0,93,0.00,,,0.01,WeatherCatV1.15B25,2013-09-23 16:20:00,
2013-09-23 09:25:00,57.7,55.7,30.07,WSW,241,3.0,3.0,93,0.00,,,0.01,WeatherCatV1.15B25,2013-09-23 16:25:00,
2013-09-23 09:30:00,57.7,55.4,30.06,West,264,4.0,4.0,92,0.00,,,0.01,WeatherCatV1.15B25,2013-09-23 16:30:00,
2013-09-23 09:36:00,57.7,55.4,30.06,West,263,0.0,0.0,92,0.00,,,0.01,WeatherCatV1.15B25,2013-09-23 16:36:00,
2013-09-23 09:41:00,57.8,55.8,30.06,WNW,298,1.0,3.0,93,0.00,,,0.01,WeatherCatV1.15B25,2013-09-23 16:41:00,
2013-09-23 09:46:00,57.8,55.5,30.07,West,279,2.0,3.0,92,0.00,,,0.01,WeatherCatV1.15B25,2013-09-23 16:46:00,
2013-09-23 09:51:00,57.8,55.2,30.07,WNW,299,3.0,3.0,91,0.00,,,0.01,WeatherCatV1.15B25,2013-09-23 16:51:00,
2013-09-23 09:56:00,57.8,55.2,30.07,WNW,298,1.0,3.0,91,0.00,,,0.01,WeatherCatV1.15B25,2013-09-23 16:56:00,
2013-09-23 10:01:00,57.8,54.9,30.08,WNW,295,2.0,4.0,90,0.00,,,0.01,WeatherCatV1.15B25,2013-09-23 17:01:00,
2013-09-23 10:06:00,57.8,54.9,30.08,WNW,295,0.0,2.0,90,0.00,,,0.01,WeatherCatV1.15B25,2013-09-23 17:06:00,
2013-09-23 10:11:00,57.9,55.0,30.08,NW,305,0.0,0.0,90,0.00,,,0.01,WeatherCatV1.15B25,2013-09-23 17:11:00,
2013-09-23 10:16:00,58.1,55.2,30.08,West,271,0.0,0.0,90,0.00,,,0.01,WeatherCatV1.15B25,2013-09-23 17:16:00,
2013-09-23 10:21:00,58.3,55.1,30.08,WNW,288,0.0,0.0,89,0.00,,,0.01,WeatherCatV1.15B25,2013-09-23 17:21:00,
2013-09-23 10:26:00,58.4,54.9,30.08,WNW,298,0.0,0.0,88,0.00,,,0.01,WeatherCatV1.15B25,2013-09-23 17:26:00,
2013-09-23 10:34:00,58.6,55.4,30.08,NW,314,0.0,0.0,89,0.00,,,0.01,WeatherCatV1.15B25,2013-09-23 17:34:00,
2013-09-23 10:39:00,58.6,55.1,30.08,NNW,328,0.0,3.0,88,0.00,,,0.01,WeatherCatV1.15B25,2013-09-23 17:39:00,
2013-09-23 10:44:00,58.6,55.1,30.08,NW,320,0.0,1.0,88,0.00,,,0.01,WeatherCatV1.15B25,2013-09-23 17:44:00,
2013-09-23 10:49:00,58.6,55.1,30.08,NNW,331,3.0,4.0,88,0.00,,,0.01,WeatherCatV1.15B25,2013-09-23 17:49:00,
2013-09-23 10:54:00,58.7,55.2,30.08,NNW,345,1.0,4.0,88,0.00,,,0.01,WeatherCatV1.15B25,2013-09-23 17:54:00,
2013-09-23 10:59:00,58.7,55.2,30.08,NNW,330,0.0,0.0,88,0.00,,,0.01,WeatherCatV1.15B25,2013-09-23 17:59:00,
2013-09-23 11:04:00,58.7,55.2,30.09,NNW,328,0.0,0.0,88,0.00,,,0.01,WeatherCatV1.15B25,2013-09-23 18:04:00,
2013-09-23 11:09:00,58.7,55.2,30.09,NW,306,0.0,0.0,88,0.00,,,0.01,WeatherCatV1.15B25,2013-09-23 18:09:00,
2013-09-23 11:14:00,58.7,55.2,30.09,NW,321,0.0,0.0,88,0.00,,,0.01,WeatherCatV1.15B25,2013-09-23 18:14:00,
2013-09-23 11:19:00,58.8,55.3,30.09,NW,313,0.0,0.0,88,0.00,,,0.01,WeatherCatV1.15B25,2013-09-23 18:19:00,
2013-09-23 11:24:00,58.8,55.3,30.09,NW,309,2.0,2.0,88,0.00,,,0.01,WeatherCatV1.15B25,2013-09-23 18:24:00,
2013-09-23 11:29:00,58.9,55.3,30.09,NNW,329,0.0,0.0,88,0.00,,,0.01,WeatherCatV1.15B25,2013-09-23 18:29:00,
2013-09-23 11:34:00,58.9,55.3,30.09,NNW,329,0.0,0.0,88,0.00,,,0.01,WeatherCatV1.15B25,2013-09-23 18:34:00,
2013-09-23 11:39:00,59.0,55.1,30.09,NNW,329,0.0,0.0,87,0.00,,,0.01,WeatherCatV1.15B25,2013-09-23 18:39:00,
2013-09-23 11:44:00,59.2,55.6,30.09,NNW,329,0.0,0.0,88,0.00,,,0.01,WeatherCatV1.15B25,2013-09-23 18:44:00,
2013-09-23 11:49:00,59.4,55.5,30.09,SE,142,0.0,0.0,87,0.00,,,0.01,WeatherCatV1.15B25,2013-09-23 18:49:00,
2013-09-23 11:54:00,59.6,55.7,30.09,SE,140,0.0,0.0,87,0.00,,,0.01,WeatherCatV1.15B25,2013-09-23 18:54:00,
2013-09-23 11:59:00,59.9,56.0,30.09,SSE,155,0.0,0.0,87,0.00,,,0.01,WeatherCatV1.15B25,2013-09-23 18:59:00,
2013-09-23 12:04:00,60.1,56.5,30.09,South,171,0.0,0.0,88,0.00,,,0.01,WeatherCatV1.15B25,2013-09-23 19:04:00,
2013-09-23 12:09:00,60.3,56.4,30.09,South,171,0.0,0.0,87,0.00,,,0.01,WeatherCatV1.15B25,2013-09-23 19:09:00,
2013-09-23 12:14:00,60.5,56.3,30.09,East,87,0.0,0.0,86,0.00,,,0.01,WeatherCatV1.15B25,2013-09-23 19:14:00,
2013-09-23 12:19:00,60.7,56.2,30.09,East,92,0.0,0.0,85,0.00,,,0.01,WeatherCatV1.15B25,2013-09-23 19:19:00,
2013-09-23 12:24:00,60.8,56.3,30.09,East,92,0.0,0.0,85,0.00,,,0.01,WeatherCatV1.15B25,2013-09-23 19:24:00,
2013-09-23 12:29:00,61.0,56.5,30.09,SE,142,0.0,0.0,85,0.00,,,0.01,WeatherCatV1.15B25,2013-09-23 19:29:00,
2013-09-23 12:34:00,61.2,56.3,30.09,South,177,0.0,0.0,84,0.00,,,0.01,WeatherCatV1.15B25,2013-09-23 19:34:00,
2013-09-23 12:39:00,61.4,56.5,30.09,SE,140,0.0,0.0,84,0.00,,,0.01,WeatherCatV1.15B25,2013-09-23 19:39:00,
2013-09-23 12:44:00,61.6,56.7,30.09,SE,128,0.0,0.0,84,0.00,,,0.01,WeatherCatV1.15B25,2013-09-23 19:44:00,
2013-09-23 12:49:00,61.7,56.5,30.09,East,93,0.0,0.0,83,0.00,,,0.01,WeatherCatV1.15B25,2013-09-23 19:49:00,
2013-09-23 12:54:00,61.8,57.2,30.09,ENE,67,0.0,0.0,85,0.00,,,0.01,WeatherCatV1.15B25,2013-09-23 19:54:00,
2013-09-23 12:59:00,61.9,56.3,30.09,East,90,0.0,0.0,82,0.00,,,0.01,WeatherCatV1.15B25,2013-09-23 19:59:00,
2013-09-23 13:04:00,61.9,56.7,30.09,East,91,0.0,0.0,83,0.00,,,0.01,WeatherCatV1.15B25,2013-09-23 20:04:00,
2013-09-23 13:09:00,62.0,56.4,30.09,SE,126,0.0,0.0,82,0.00,,,0.01,WeatherCatV1.15B25,2013-09-23 20:09:00,
2013-09-23 13:14:00,62.0,56.4,30.09,ESE,121,0.0,0.0,82,0.00,,,0.01,WeatherCatV1.15B25,2013-09-23 20:14:00,
2013-09-23 13:19:00,62.1,56.9,30.09,SE,139,2.0,4.0,83,0.00,,,0.01,WeatherCatV1.15B25,2013-09-23 20:19:00,
2013-09-23 13:24:00,62.3,57.4,30.09,SE,144,1.0,4.0,84,0.00,,,0.01,WeatherCatV1.15B25,2013-09-23 20:24:00,
2013-09-23 13:29:00,62.5,56.9,30.09,SSE,161,0.0,5.0,82,0.00,,,0.01,WeatherCatV1.15B25,2013-09-23 20:29:00,
2013-09-23 13:34:00,62.7,57.1,30.09,SE,136,1.0,4.0,82,0.00,,,0.01,WeatherCatV1.15B25,2013-09-23 20:34:00,
2013-09-23 13:39:00,62.8,56.9,30.09,ESE,116,1.0,1.0,81,0.00,,,0.01,WeatherCatV1.15B25,2013-09-23 20:39:00,
2013-09-23 13:44:00,62.9,57.3,30.08,SSE,154,0.0,2.0,82,0.00,,,0.01,WeatherCatV1.15B25,2013-09-23 20:44:00,
2013-09-23 13:49:00,63.1,57.2,30.09,South,178,0.0,2.0,81,0.00,,,0.01,WeatherCatV1.15B25,2013-09-23 20:49:00,
2013-09-23 13:54:00,63.4,57.8,30.09,SE,143,2.0,6.0,82,0.00,,,0.01,WeatherCatV1.15B25,2013-09-23 20:54:00,
2013-09-23 13:59:00,63.4,57.8,30.09,SSE,163,2.0,5.0,82,0.00,,,0.01,WeatherCatV1.15B25,2013-09-23 20:59:00,
2013-09-23 14:04:00,63.4,57.8,30.08,ESE,123,3.0,5.0,82,0.00,,,0.01,WeatherCatV1.15B25,2013-09-23 21:04:00,
2013-09-23 14:09:00,63.4,57.8,30.08,SE,143,3.0,5.0,82,0.00,,,0.01,WeatherCatV1.15B25,2013-09-23 21:09:00,
2013-09-23 14:14:00,63.4,57.8,30.08,East,97,3.0,5.0,82,0.00,,,0.01,WeatherCatV1.15B25,2013-09-23 21:14:00,
2013-09-23 14:19:00,63.3,57.0,30.08,ESE,120,2.0,3.0,80,0.00,,,0.01,WeatherCatV1.15B25,2013-09-23 21:19:00,
2013-09-23 14:24:00,63.2,57.3,30.08,East,96,2.0,5.0,81,0.00,,,0.01,WeatherCatV1.15B25,2013-09-23 21:24:00,
2013-09-23 14:29:00,63.4,57.5,30.08,SE,125,1.0,3.0,81,0.00,,,0.01,WeatherCatV1.15B25,2013-09-23 21:29:00,
2013-09-23 14:34:00,63.7,57.8,30.08,SE,132,2.0,5.0,81,0.00,,,0.01,WeatherCatV1.15B25,2013-09-23 21:34:00,
2013-09-23 14:39:00,63.9,57.3,30.08,South,173,2.0,5.0,79,0.00,,,0.01,WeatherCatV1.15B25,2013-09-23 21:39:00,
2013-09-23 14:44:00,64.1,57.4,30.08,ESE,120,3.0,5.0,79,0.00,,,0.01,WeatherCatV1.15B25,2013-09-23 21:44:00,
2013-09-23 14:49:00,64.2,57.9,30.08,ESE,117,4.0,5.0,80,0.00,,,0.01,WeatherCatV1.15B25,2013-09-23 21:49:00,
2013-09-23 14:54:00,64.2,58.0,30.08,East,101,3.0,5.0,80,0.00,,,0.01,weatherlink.com 1.10,2013-09-23 21:54:00,
2013-09-23 14:59:00,64.4,58.1,30.08,ESE,123,3.0,4.0,80,0.00,,,0.01,WeatherCatV1.15B25,2013-09-23 21:59:00,
2013-09-23 15:04:00,64.8,58.1,30.08,SSE,158,1.0,5.0,79,0.00,,,0.01,WeatherCatV1.15B25,2013-09-23 22:04:00,
2013-09-23 15:09:00,65.0,58.0,30.08,ESE,113,3.0,8.0,78,0.00,,,0.01,WeatherCatV1.15B25,2013-09-23 22:09:00,
2013-09-23 15:14:00,65.0,57.6,30.08,SSE,154,2.0,5.0,77,0.00,,,0.01,WeatherCatV1.15B25,2013-09-23 22:14:00,
2013-09-23 15:19:00,65.0,58.0,30.08,SSE,163,3.0,7.0,78,0.00,,,0.01,WeatherCatV1.15B25,2013-09-23 22:19:00,
2013-09-23 15:24:00,64.8,57.4,30.07,SE,128,5.0,7.0,77,0.00,,,0.01,WeatherCatV1.15B25,2013-09-23 22:24:00,
2013-09-23 15:29:00,64.7,57.0,30.07,South,184,1.0,7.0,76,0.00,,,0.01,WeatherCatV1.15B25,2013-09-23 22:29:00,
2013-09-23 15:34:00,64.8,57.4,30.07,ESE,109,2.0,4.0,77,0.00,,,0.01,WeatherCatV1.15B25,2013-09-23 22:34:00,
2013-09-23 15:39:00,64.9,57.1,30.07,SSE,159,3.0,5.0,76,0.00,,,0.01,WeatherCatV1.15B25,2013-09-23 22:39:00,
2013-09-23 15:44:00,65.1,57.0,30.07,SSW,209,3.0,5.0,75,0.00,,,0.01,WeatherCatV1.15B25,2013-09-23 22:44:00,
2013-09-23 15:49:00,65.3,58.0,30.07,South,184,2.0,5.0,77,0.00,,,0.01,weatherlink.com 1.10,2013-09-23 22:49:00,
2013-09-23 15:54:00,65.7,57.6,30.07,South,170,4.0,5.0,75,0.00,,,0.01,WeatherCatV1.15B25,2013-09-23 22:54:00,
2013-09-23 15:59:00,66.1,57.6,30.07,SE,132,0.0,1.0,74,0.00,,,0.01,WeatherCatV1.15B25,2013-09-23 22:59:00,
2013-09-23 16:04:00,66.6,57.7,30.06,SE,132,0.0,0.0,73,0.00,,,0.01,WeatherCatV1.15B25,2013-09-23 23:04:00,
2013-09-23 16:08:00,66.8,57.5,30.07,SSW,202,0.0,0.0,72,0.00,,,0.01,WeatherCatV1.15B25,2013-09-23 23:08:00,
2013-09-23 16:14:00,67.0,57.3,30.07,SSW,206,0.0,0.0,71,0.00,,,0.01,WeatherCatV1.15B25,2013-09-23 23:14:00,
2013-09-23 16:19:00,67.2,57.1,30.07,SW,227,0.0,0.0,70,0.00,,,0.01,WeatherCatV1.15B25,2013-09-23 23:19:00,
2013-09-23 16:24:00,67.2,56.3,30.06,SW,227,0.0,0.0,68,0.00,,,0.01,WeatherCatV1.15B25,2013-09-23 23:24:00,
2013-09-23 16:29:00,67.2,57.1,30.06,WNW,298,0.0,0.0,70,0.00,,,0.01,WeatherCatV1.15B25,2013-09-23 23:29:00,
2013-09-23 16:34:00,67.2,57.1,30.06,NW,318,0.0,0.0,70,0.00,,,0.01,WeatherCatV1.15B25,2013-09-23 23:34:00,
2013-09-23 16:39:00,67.0,57.3,30.06,NW,325,0.0,0.0,71,0.00,,,0.01,WeatherCatV1.15B25,2013-09-23 23:39:00,
2013-09-23 16:44:00,66.9,56.8,30.06,NW,325,0.0,0.0,70,0.00,,,0.01,WeatherCatV1.15B25,2013-09-23 23:44:00,
2013-09-23 16:49:00,67.0,57.7,30.06,NW,321,0.0,0.0,72,0.00,,,0.01,WeatherCatV1.15B25,2013-09-23 23:49:00,
2013-09-23 16:53:00,67.1,57.4,30.06,NNW,341,0.0,0.0,71,0.00,,,0.01,WeatherCatV1.15B25,2013-09-23 23:53:00,
2013-09-23 16:58:00,67.0,57.3,30.06,North,355,0.0,0.0,71,0.00,,,0.01,WeatherCatV1.15B25,2013-09-23 23:58:00,
2013-09-23 17:03:00,66.8,58.2,30.06,North,0,0.0,0.0,74,0.00,,,0.01,WeatherCatV1.15B25,2013-09-24 00:03:00,
2013-09-23 17:08:00,66.6,57.7,30.06,NNE,26,0.0,0.0,73,0.00,,,0.01,WeatherCatV1.15B25,2013-09-24 00:08:00,
2013-09-23 17:13:00,66.2,57.7,30.06,NNE,21,0.0,0.0,74,0.00,,,0.01,WeatherCatV1.15B25,2013-09-24 00:13:00,
2013-09-23 17:18:00,65.8,57.3,30.06,NNW,333,0.0,0.0,74,0.00,,,0.01,WeatherCatV1.15B25,2013-09-24 00:18:00,
2013-09-23 17:23:00,65.6,57.8,30.06,North,351,0.0,0.0,76,0.00,,,0.01,WeatherCatV1.15B25,2013-09-24 00:23:00,
2013-09-23 17:28:00,65.4,57.6,30.06,NW,320,0.0,0.0,76,0.00,,,0.01,WeatherCatV1.15B25,2013-09-24 00:28:00,
2013-09-23 17:33:00,65.2,58.2,30.06,North,355,0.0,0.0,78,0.00,,,0.01,WeatherCatV1.15B25,2013-09-24 00:33:00,
2013-09-23 17:38:00,65.0,58.0,30.06,NW,324,0.0,0.0,78,0.00,,,0.01,WeatherCatV1.15B25,2013-09-24 00:38:00,
2013-09-23 17:43:00,64.7,57.3,30.06,NW,312,0.0,0.0,77,0.00,,,0.01,WeatherCatV1.15B25,2013-09-24 00:43:00,
2013-09-23 17:48:00,64.5,57.8,30.06,North,350,0.0,0.0,79,0.00,,,0.01,WeatherCatV1.15B25,2013-09-24 00:48:00,
2013-09-23 17:53:00,64.3,58.0,30.06,North,355,0.0,0.0,80,0.00,,,0.01,WeatherCatV1.15B25,2013-09-24 00:53:00,
2013-09-23 17:58:00,64.0,58.4,30.06,North,5,2.0,3.0,82,0.00,,,0.01,WeatherCatV1.15B25,2013-09-24 00:58:00,
2013-09-23 18:03:00,63.8,58.2,30.06,North,355,0.0,1.0,82,0.00,,,0.01,WeatherCatV1.15B25,2013-09-24 01:03:00,
2013-09-23 18:08:00,63.6,58.0,30.06,North,355,2.0,3.0,82,0.00,,,0.01,WeatherCatV1.15B25,2013-09-24 01:08:00,
2013-09-23 18:13:00,63.4,57.5,30.06,North,355,0.0,0.0,81,0.00,,,0.01,WeatherCatV1.15B25,2013-09-24 01:13:00,
2013-09-23 18:18:00,63.2,57.6,30.06,North,5,0.0,0.0,82,0.00,,,0.01,WeatherCatV1.15B25,2013-09-24 01:18:00,
2013-09-23 18:24:00,63.1,57.2,30.06,NNE,21,0.0,0.0,81,0.00,,,0.01,WeatherCatV1.15B25,2013-09-24 01:24:00,
2013-09-23 18:29:00,62.9,57.0,30.06,NNE,26,0.0,0.0,81,0.00,,,0.01,WeatherCatV1.15B25,2013-09-24 01:29:00,
2013-09-23 18:34:00,62.9,57.3,30.06,NNE,15,0.0,0.0,82,0.00,,,0.01,WeatherCatV1.15B25,2013-09-24 01:34:00,
2013-09-23 18:39:00,62.8,57.2,30.06,NNE,17,0.0,0.0,82,0.00,,,0.01,WeatherCatV1.15B25,2013-09-24 01:39:00,
2013-09-23 18:44:00,62.8,57.6,30.06,NNE,17,0.0,0.0,83,0.00,,,0.01,WeatherCatV1.15B25,2013-09-24 01:44:00,
2013-09-23 18:49:00,62.7,57.8,30.06,NNE,17,0.0,0.0,84,0.00,,,0.01,WeatherCatV1.15B25,2013-09-24 01:49:00,
2013-09-23 18:54:00,62.6,57.4,30.06,NNE,17,0.0,0.0,83,0.00,,,0.01,WeatherCatV1.15B25,2013-09-24 01:54:00,
2013-09-23 18:59:00,62.4,56.8,30.06,North,5,0.0,0.0,82,0.00,,,0.01,WeatherCatV1.15B25,2013-09-24 01:59:00,
2013-09-23 19:04:00,62.2,56.6,30.06,North,10,0.0,2.0,82,0.00,,,0.01,WeatherCatV1.15B25,2013-09-24 02:04:00,
2013-09-23 19:09:00,62.0,56.4,30.06,NE,40,2.0,3.0,82,0.00,,,0.01,WeatherCatV1.15B25,2013-09-24 02:09:00,
2013-09-23 19:14:00,61.6,56.0,30.06,NNE,23,0.0,2.0,82,0.00,,,0.01,WeatherCatV1.15B25,2013-09-24 02:14:00,
2013-09-23 19:19:00,61.4,55.9,30.06,NE,42,1.0,2.0,82,0.00,,,0.01,WeatherCatV1.15B25,2013-09-24 02:19:00,
2013-09-23 19:24:00,61.3,55.8,30.06,NE,44,0.0,2.0,82,0.00,,,0.01,WeatherCatV1.15B25,2013-09-24 02:24:00,
2013-09-23 19:29:00,61.2,56.0,30.06,NE,55,0.0,0.0,83,0.00,,,0.01,WeatherCatV1.15B25,2013-09-24 02:29:00,
2013-09-23 19:34:00,61.1,55.9,30.06,NE,55,0.0,0.0,83,0.00,,,0.01,WeatherCatV1.15B25,2013-09-24 02:34:00,
2013-09-23 19:39:00,61.0,55.5,30.06,NE,55,0.0,0.0,82,0.00,,,0.01,WeatherCatV1.15B25,2013-09-24 02:39:00,
2013-09-23 19:44:00,60.9,55.7,30.06,NE,55,0.0,0.0,83,0.00,,,0.01,WeatherCatV1.15B25,2013-09-24 02:44:00,
2013-09-23 19:49:00,60.9,55.7,30.06,NE,55,0.0,0.0,83,0.00,,,0.01,WeatherCatV1.15B25,2013-09-24 02:49:00,
2013-09-23 19:54:00,60.9,56.0,30.06,NE,55,0.0,0.0,84,0.00,,,0.01,WeatherCatV1.15B25,2013-09-24 02:54:00,
2013-09-23 19:59:00,60.9,56.4,30.06,NE,55,0.0,0.0,85,0.00,,,0.01,WeatherCatV1.15B25,2013-09-24 02:59:00,
2013-09-23 20:04:00,60.9,56.7,30.06,NE,55,0.0,0.0,86,0.00,,,0.01,WeatherCatV1.15B25,2013-09-24 03:04:00,
2013-09-23 20:09:00,60.8,56.6,30.07,NE,55,0.0,0.0,86,0.00,,,0.01,WeatherCatV1.15B25,2013-09-24 03:09:00,
2013-09-23 20:14:00,60.7,56.5,30.07,NE,55,0.0,0.0,86,0.00,,,0.01,WeatherCatV1.15B25,2013-09-24 03:14:00,
2013-09-23 20:19:00,60.5,56.3,30.07,NE,55,0.0,0.0,86,0.00,,,0.01,WeatherCatV1.15B25,2013-09-24 03:19:00,
2013-09-23 20:24:00,60.4,56.2,30.07,NE,55,0.0,0.0,86,0.00,,,0.01,WeatherCatV1.15B25,2013-09-24 03:24:00,
2013-09-23 20:29:00,60.4,56.5,30.07,NE,55,0.0,0.0,87,0.00,,,0.01,WeatherCatV1.15B25,2013-09-24 03:29:00,
2013-09-23 20:34:00,60.3,56.7,30.07,NE,55,0.0,0.0,88,0.00,,,0.01,WeatherCatV1.15B25,2013-09-24 03:34:00,
2013-09-23 20:39:00,60.2,56.9,30.07,ENE,61,0.0,0.0,89,0.00,,,0.01,WeatherCatV1.15B25,2013-09-24 03:39:00,
2013-09-23 20:44:00,60.1,56.8,30.07,ENE,61,0.0,0.0,89,0.00,,,0.01,WeatherCatV1.15B25,2013-09-24 03:44:00,
2013-09-23 20:49:00,60.0,56.7,30.07,ENE,61,0.0,0.0,89,0.00,,,0.01,WeatherCatV1.15B25,2013-09-24 03:49:00,
2013-09-23 20:53:00,59.9,56.6,30.07,ENE,61,0.0,0.0,89,0.00,,,0.01,WeatherCatV1.15B25,2013-09-24 03:53:00,
2013-09-23 20:58:00,59.8,56.5,30.08,ENE,61,0.0,0.0,89,0.00,,,0.01,WeatherCatV1.15B25,2013-09-24 03:58:00,
2013-09-23 21:01:00,59.8,56.9,30.07,ENE,61,0.0,0.0,90,0.00,,,0.01,WeatherCatV1.15B25,2013-09-24 04:01:00,
2013-09-23 21:06:00,59.7,56.8,30.07,ENE,61,0.0,0.0,90,0.00,,,0.01,WeatherCatV1.15B25,2013-09-24 04:06:00,
2013-09-23 21:11:00,59.6,56.7,30.07,ENE,61,0.0,0.0,90,0.00,,,0.01,WeatherCatV1.15B25,2013-09-24 04:11:00,
2013-09-23 21:16:00,59.5,56.3,30.08,ENE,61,0.0,0.0,89,0.00,,,0.01,WeatherCatV1.15B25,2013-09-24 04:16:00,
2013-09-23 21:21:00,59.5,56.3,30.08,ENE,61,0.0,0.0,89,0.00,,,0.01,WeatherCatV1.15B25,2013-09-24 04:21:00,
2013-09-23 21:26:00,59.5,56.3,30.07,ENE,61,0.0,0.0,89,0.00,,,0.01,WeatherCatV1.15B25,2013-09-24 04:26:00,
2013-09-23 21:31:00,59.4,56.2,30.07,ENE,61,0.0,0.0,89,0.00,,,0.01,WeatherCatV1.15B25,2013-09-24 04:31:00,
2013-09-23 21:36:00,59.3,56.4,30.07,ENE,61,0.0,0.0,90,0.00,,,0.01,WeatherCatV1.15B25,2013-09-24 04:36:00,
2013-09-23 21:41:00,59.2,56.3,30.07,ENE,61,0.0,0.0,90,0.00,,,0.01,WeatherCatV1.15B25,2013-09-24 04:41:00,
2013-09-23 21:48:00,59.1,56.2,30.07,ENE,61,0.0,0.0,90,0.00,,,0.01,WeatherCatV1.15B25,2013-09-24 04:48:00,
2013-09-23 21:53:00,59.0,56.1,30.07,ENE,61,0.0,0.0,90,0.00,,,0.01,WeatherCatV1.15B25,2013-09-24 04:53:00,
2013-09-23 21:58:00,58.9,56.0,30.07,ENE,61,0.0,0.0,90,0.00,,,0.01,WeatherCatV1.15B25,2013-09-24 04:58:00,
2013-09-23 22:03:00,58.8,55.9,30.07,ENE,61,0.0,0.0,90,0.00,,,0.01,WeatherCatV1.15B25,2013-09-24 05:03:00,
2013-09-23 22:08:00,58.7,55.8,30.07,ENE,61,0.0,0.0,90,0.00,,,0.01,WeatherCatV1.15B25,2013-09-24 05:08:00,
2013-09-23 22:13:00,58.6,55.7,30.07,ENE,61,0.0,0.0,90,0.00,,,0.01,WeatherCatV1.15B25,2013-09-24 05:13:00,
2013-09-23 22:18:00,58.5,55.6,30.07,ENE,61,0.0,0.0,90,0.00,,,0.01,WeatherCatV1.15B25,2013-09-24 05:18:00,
2013-09-23 22:23:00,58.4,55.5,30.07,ENE,61,0.0,0.0,90,0.00,,,0.01,WeatherCatV1.15B25,2013-09-24 05:23:00,
2013-09-23 22:28:00,58.3,55.4,30.07,ENE,58,0.0,0.0,90,0.00,,,0.01,WeatherCatV1.15B25,2013-09-24 05:28:00,
2013-09-23 22:33:00,58.2,55.3,30.07,ENE,58,0.0,0.0,90,0.00,,,0.01,WeatherCatV1.15B25,2013-09-24 05:33:00,
2013-09-23 22:38:00,58.1,55.2,30.07,ENE,58,0.0,0.0,90,0.00,,,0.01,WeatherCatV1.15B25,2013-09-24 05:38:00,
2013-09-23 22:43:00,58.0,55.4,30.07,ENE,58,0.0,0.0,91,0.00,,,0.01,WeatherCatV1.15B25,2013-09-24 05:43:00,
2013-09-23 22:48:00,57.9,55.3,30.07,ENE,58,0.0,0.0,91,0.00,,,0.01,WeatherCatV1.15B25,2013-09-24 05:48:00,
2013-09-23 22:53:00,57.9,55.3,30.06,ENE,58,0.0,0.0,91,0.00,,,0.01,WeatherCatV1.15B25,2013-09-24 05:53:00,
2013-09-23 22:58:00,57.8,55.2,30.06,ENE,58,0.0,0.0,91,0.00,,,0.01,WeatherCatV1.15B25,2013-09-24 05:58:00,
2013-09-23 23:03:00,57.8,55.2,30.06,ENE,58,0.0,0.0,91,0.00,,,0.01,WeatherCatV1.15B25,2013-09-24 06:03:00,
2013-09-23 23:08:00,57.8,55.2,30.06,ENE,58,0.0,0.0,91,0.00,,,0.01,WeatherCatV1.15B25,2013-09-24 06:08:00,
2013-09-23 23:13:00,57.7,55.1,30.06,ENE,58,0.0,0.0,91,0.00,,,0.01,WeatherCatV1.15B25,2013-09-24 06:13:00,
2013-09-23 23:18:00,57.7,55.1,30.06,ENE,58,0.0,0.0,91,0.00,,,0.01,WeatherCatV1.15B25,2013-09-24 06:18:00,
2013-09-23 23:23:00,57.6,55.3,30.06,ENE,58,0.0,0.0,92,0.00,,,0.01,WeatherCatV1.15B25,2013-09-24 06:23:00,
2013-09-23 23:28:00,57.6,55.3,30.06,ENE,58,0.0,0.0,92,0.00,,,0.01,WeatherCatV1.15B25,2013-09-24 06:28:00,
2013-09-23 23:33:00,57.5,55.2,30.06,NW,306,3.0,3.0,92,0.00,,,0.01,WeatherCatV1.15B25,2013-09-24 06:33:00,
2013-09-23 23:38:00,57.4,55.1,30.06,NW,323,0.0,2.0,92,0.00,,,0.01,WeatherCatV1.15B25,2013-09-24 06:38:00,
2013-09-23 23:43:00,57.4,55.1,30.06,NW,308,0.0,0.0,92,0.00,,,0.01,WeatherCatV1.15B25,2013-09-24 06:43:00,
2013-09-23 23:49:00,57.4,54.8,30.06,NW,308,0.0,0.0,91,0.00,,,0.01,WeatherCatV1.15B25,2013-09-24 06:49:00,
2013-09-23 23:54:00,57.4,55.1,30.06,NW,308,0.0,0.0,92,0.00,,,0.01,WeatherCatV1.15B25,2013-09-24 06:54:00,
2013-09-23 23:59:00,57.4,54.8,30.05,NW,308,0.0,0.0,91,0.00,,,0.01,WeatherCatV1.15B25,2013-09-24 06:59:00,